Home   Weather   Reading   Past weeks

Flag for United Kingdom Past Weather in Reading, England, United Kingdom — Yesterday and Last 2 Weeks

Now
63 °F

Low clouds.


Feels Like: 63 °F
Forecast: 50 / 61 °F
Wind: 10 mph from Southwest

Location: Benson

Current Time: Sep 29, 2016 at 2:38:01 AM

Latest Report: Sep 29, 2016 at 1:50 AM


Visibility: N/A

Pressure: 30.04 "Hg

Humidity: 94%

Dew Point: 61 °F

Location of ReadingLocation

Past Weather in Reading — Graph

°F

Reading Temperature Yesterday

Maximum temperature yesterday: 72 °F (at 1:50 PM)
Minimum temperature yesterday: 50 °F (at 12:50 AM)
Average temperature yesterday: 60 °F

High & Low Weather Summary for the Past Weeks

 TemperatureHumidityPressure
High81 °F (Sep 14, 12:50 PM)100% (Sep 15, 1:50 AM)30.27 "Hg (Sep 15, 1:50 AM)
Low41 °F (Sep 23, 3:50 AM)49% (Sep 22, 2:50 PM)29.74 "Hg (Sep 14, 5:50 AM)
Average60 °F82%30.06 "Hg
* Reported Sep 14 12:50 AM — Sep 29 12:50 AM, Reading, Weather by CustomWeather, © 2016

Note: Actual official high and low records may vary slightly from our data, if they occured in-between our weather recording intervals... More about our weather records

Advertising

Reading Weather History for the Previous 24 Hours

Scroll right to see more
 ConditionsComfort  
Time TempWeatherWind HumidityBarometerVisibility
12:50 AM
Thu, Sep 29
63 °FLow clouds.13 mph94%30.07 "HgN/A
11:50 PM
Wed, Sep 28
63 °FMostly cloudy.13 mph94%30.09 "HgN/A
10:50 PM63 °FLow clouds.14 mph94%30.12 "HgN/A
9:50 PM61 °FLow clouds.16 mph94%30.12 "HgN/A
8:50 PM63 °FPassing clouds.14 mph94%30.15 "HgN/A
7:50 PM64 °FPassing clouds.12 mph88%30.12 "HgN/A
6:50 PM64 °FOvercast.13 mph88%30.15 "HgN/A
5:50 PM66 °FMostly cloudy.12 mph83%30.18 "HgN/A
4:50 PM68 °FPartly sunny.14 mph83%30.18 "HgN/A
2:50 PM72 °FPartly sunny.14 mph73%30.21 "HgN/A
1:50 PM72 °FPartly sunny.15 mph73%30.21 "HgN/A
12:50 PM68 °FBroken clouds.14 mph73%30.24 "HgN/A
11:50 AM66 °FPartly sunny.14 mph78%30.24 "HgN/A
10:50 AM64 °FBroken clouds.8 mph78%30.24 "HgN/A
9:50 AM59 °FScattered clouds.10 mph88%30.24 "HgN/A
8:50 AM55 °FBroken clouds.10 mph94%30.24 "HgN/A
7:50 AM54 °FScattered clouds.8 mph94%30.24 "HgN/A
6:50 AM54 °FFog.7 mph94%30.24 "Hg6 mi
5:50 AM52 °FFog.8 mph100%30.24 "Hg5 mi
4:50 AM54 °FFog.7 mph94%30.24 "Hg6 mi
3:50 AM52 °FPassing clouds.5 mph94%30.24 "HgN/A
2:50 AM50 °FPassing clouds.7 mph100%30.24 "Hg5 mi
Weather by CustomWeather, © 2016

See weather overviewHow to use our weather pages